カタログに戻る

STARLINK-3766

運用中通信VLEO
NORAD 52296·PAYLOAD·🇺🇸 United States

打ち上げ Apr 21, 2022 から Cape Canaveral Space Force Station

Loading…

次のパス (今後24時間)

TLE

最新Source: CelesTrak SupGP

元期: Sep 14, 2026, 20:48 UTC

1 52296C 22041AM  26257.86715278 -.00030731  00000+0 -90885-3 0  2574
2 52296  53.1590 317.7041 0001285  73.3685 182.2132 15.34374920    18

AllMySatでSTARLINK-3766をリアルタイム追跡

Download on the App Store